Year,Month,Day,Hour,Minute,Value (Times are PST for temperature in C)
2018,08,20,00,00,16.30
2018,08,20,00,01,16.20
2018,08,20,00,02,16.20
2018,08,20,00,03,16.20
2018,08,20,00,04,16.20
2018,08,20,00,05,16.20
2018,08,20,00,06,16.20
2018,08,20,00,07,16.20
2018,08,20,00,08,16.10
2018,08,20,00,09,16.10
2018,08,20,00,10,16.10
2018,08,20,00,11,16.10
2018,08,20,00,12,16.10
2018,08,20,00,13,16.10
2018,08,20,00,14,16.10
2018,08,20,00,15,16.10
2018,08,20,00,16,16.10
2018,08,20,00,17,16.00
2018,08,20,00,18,16.00
2018,08,20,00,19,16.00
2018,08,20,00,20,16.00
2018,08,20,00,21,16.00
2018,08,20,00,22,16.00
2018,08,20,00,23,16.00
2018,08,20,00,24,16.00
2018,08,20,00,25,16.00
2018,08,20,00,26,16.00
2018,08,20,00,27,16.00
2018,08,20,00,28,15.90
2018,08,20,00,29,15.90
2018,08,20,00,30,15.90
2018,08,20,00,31,15.90
2018,08,20,00,32,15.90
2018,08,20,00,33,15.90
2018,08,20,00,34,15.90
2018,08,20,00,35,15.90
2018,08,20,00,36,15.90
2018,08,20,00,37,15.90
2018,08,20,00,38,15.90
2018,08,20,00,39,15.90
2018,08,20,00,40,15.90
2018,08,20,00,41,15.80
2018,08,20,00,42,15.80
2018,08,20,00,43,15.80
2018,08,20,00,44,15.80
2018,08,20,00,45,15.80
2018,08,20,00,46,15.80
2018,08,20,00,47,15.70
2018,08,20,00,48,15.70
2018,08,20,00,49,15.70
2018,08,20,00,50,15.70
2018,08,20,00,51,15.70
2018,08,20,00,52,15.60
2018,08,20,00,53,15.60
2018,08,20,00,54,15.60
2018,08,20,00,55,15.60
2018,08,20,00,56,15.60
2018,08,20,00,57,15.60
2018,08,20,00,58,15.60
2018,08,20,00,59,15.60
2018,08,20,01,00,15.60
2018,08,20,01,01,15.60
2018,08,20,01,02,15.60
2018,08,20,01,03,15.60
2018,08,20,01,04,15.60
2018,08,20,01,05,15.50
2018,08,20,01,06,15.50
2018,08,20,01,07,15.50
2018,08,20,01,08,15.50
2018,08,20,01,09,15.50
2018,08,20,01,10,15.40
2018,08,20,01,11,15.40
2018,08,20,01,12,15.40
2018,08,20,01,13,15.40
2018,08,20,01,14,15.40
2018,08,20,01,15,15.40
2018,08,20,01,16,15.40
2018,08,20,01,17,15.40
2018,08,20,01,18,15.40
2018,08,20,01,19,15.40
2018,08,20,01,20,15.50
2018,08,20,01,21,15.50
2018,08,20,01,22,15.50
2018,08,20,01,23,15.50
2018,08,20,01,24,15.40
2018,08,20,01,25,15.40
2018,08,20,01,26,15.40
2018,08,20,01,27,15.40
2018,08,20,01,28,15.40
2018,08,20,01,29,15.40
2018,08,20,01,30,15.40
2018,08,20,01,31,15.40
2018,08,20,01,32,15.30
2018,08,20,01,33,15.30
2018,08,20,01,34,15.30
2018,08,20,01,35,15.30
2018,08,20,01,36,15.30
2018,08,20,01,37,15.30
2018,08,20,01,38,15.30
2018,08,20,01,39,15.30
2018,08,20,01,40,15.30
2018,08,20,01,41,15.30
2018,08,20,01,42,15.30
2018,08,20,01,43,15.30
2018,08,20,01,44,15.30
2018,08,20,01,45,15.30
2018,08,20,01,46,15.30
2018,08,20,01,47,15.30
2018,08,20,01,48,15.30
2018,08,20,01,49,15.30
2018,08,20,01,50,15.30
2018,08,20,01,51,15.30
2018,08,20,01,52,15.30
2018,08,20,01,53,15.20
2018,08,20,01,54,15.20
2018,08,20,01,55,15.20
2018,08,20,01,56,15.20
2018,08,20,01,57,15.20
2018,08,20,01,58,15.20
2018,08,20,01,59,15.20
2018,08,20,02,00,15.20
2018,08,20,02,01,15.10
2018,08,20,02,02,15.10
2018,08,20,02,03,15.10
2018,08,20,02,04,15.10
2018,08,20,02,05,15.10
2018,08,20,02,06,15.00
2018,08,20,02,07,15.00
2018,08,20,02,08,15.00
2018,08,20,02,09,15.00
2018,08,20,02,10,15.00
2018,08,20,02,11,14.90
2018,08,20,02,12,14.90
2018,08,20,02,13,14.90
2018,08,20,02,14,14.90
2018,08,20,02,15,14.90
2018,08,20,02,16,14.90
2018,08,20,02,17,14.90
2018,08,20,02,18,14.90
2018,08,20,02,19,14.80
2018,08,20,02,20,14.80
2018,08,20,02,21,14.80
2018,08,20,02,22,14.80
2018,08,20,02,23,14.80
2018,08,20,02,24,14.80
2018,08,20,02,25,14.80
2018,08,20,02,26,14.80
2018,08,20,02,27,14.80
2018,08,20,02,28,14.80
2018,08,20,02,29,14.80
2018,08,20,02,30,14.70
2018,08,20,02,31,14.70
2018,08,20,02,32,14.70
2018,08,20,02,33,14.70
2018,08,20,02,34,14.70
2018,08,20,02,35,14.70
2018,08,20,02,36,14.70
2018,08,20,02,37,14.70
2018,08,20,02,38,14.70
2018,08,20,02,39,14.70
2018,08,20,02,40,14.70
2018,08,20,02,41,14.60
2018,08,20,02,42,14.60
2018,08,20,02,43,14.60
2018,08,20,02,44,14.60
2018,08,20,02,45,14.60
2018,08,20,02,46,14.60
2018,08,20,02,47,14.60
2018,08,20,02,48,14.60
2018,08,20,02,49,14.60
2018,08,20,02,50,14.50
2018,08,20,02,51,14.50
2018,08,20,02,52,14.50
2018,08,20,02,53,14.50
2018,08,20,02,54,14.50
2018,08,20,02,55,14.50
2018,08,20,02,56,14.40
2018,08,20,02,57,14.40
2018,08,20,02,58,14.40
2018,08,20,02,59,14.40
2018,08,20,03,00,14.40
2018,08,20,03,01,14.40
2018,08,20,03,02,14.40
2018,08,20,03,03,14.40
2018,08,20,03,04,14.40
2018,08,20,03,05,14.40
2018,08,20,03,06,14.40
2018,08,20,03,07,14.40
2018,08,20,03,08,14.40
2018,08,20,03,09,14.40
2018,08,20,03,10,14.40
2018,08,20,03,11,14.40
2018,08,20,03,12,14.40
2018,08,20,03,13,14.40
2018,08,20,03,14,14.40
2018,08,20,03,15,14.40
2018,08,20,03,16,14.40
2018,08,20,03,17,14.40
2018,08,20,03,18,14.30
2018,08,20,03,19,14.30
2018,08,20,03,20,14.30
2018,08,20,03,21,14.30
2018,08,20,03,22,14.30
2018,08,20,03,23,14.30
2018,08,20,03,24,14.30
2018,08,20,03,25,14.30
2018,08,20,03,26,14.30
2018,08,20,03,27,14.20
2018,08,20,03,28,14.20
2018,08,20,03,29,14.20
2018,08,20,03,30,14.20
2018,08,20,03,31,14.20
2018,08,20,03,32,14.20
2018,08,20,03,33,14.20
2018,08,20,03,34,14.20
2018,08,20,03,35,14.20
2018,08,20,03,36,14.20
2018,08,20,03,37,14.20
2018,08,20,03,38,14.20
2018,08,20,03,39,14.20
2018,08,20,03,40,14.20
2018,08,20,03,41,14.20
2018,08,20,03,42,14.20
2018,08,20,03,43,14.10
2018,08,20,03,44,14.10
2018,08,20,03,45,14.10
2018,08,20,03,46,14.10
2018,08,20,03,47,14.10
2018,08,20,03,48,14.10
2018,08,20,03,49,14.00
2018,08,20,03,50,14.00
2018,08,20,03,51,14.00
2018,08,20,03,52,14.00
2018,08,20,03,53,14.00
2018,08,20,03,54,14.00
2018,08,20,03,55,14.00
2018,08,20,03,56,14.00
2018,08,20,03,57,13.90
2018,08,20,03,58,13.90
2018,08,20,03,59,13.90
2018,08,20,04,00,13.90
2018,08,20,04,01,13.90
2018,08,20,04,02,13.90
2018,08,20,04,03,13.90
2018,08,20,04,04,13.90
2018,08,20,04,05,13.90
2018,08,20,04,06,13.90
2018,08,20,04,07,13.90
2018,08,20,04,08,13.90
2018,08,20,04,09,13.90
2018,08,20,04,10,13.90
2018,08,20,04,11,13.90
2018,08,20,04,12,13.90
2018,08,20,04,13,13.90
2018,08,20,04,14,13.90
2018,08,20,04,15,13.90
2018,08,20,04,16,14.00
2018,08,20,04,17,14.00
2018,08,20,04,18,14.00
2018,08,20,04,19,14.10
2018,08,20,04,20,14.10
2018,08,20,04,21,14.10
2018,08,20,04,22,14.10
2018,08,20,04,23,14.10
2018,08,20,04,24,14.10
2018,08,20,04,25,14.10
2018,08,20,04,26,14.00
2018,08,20,04,27,14.00
2018,08,20,04,28,14.00
2018,08,20,04,29,14.00
2018,08,20,04,30,14.00
2018,08,20,04,31,14.00
2018,08,20,04,32,14.00
2018,08,20,04,33,14.00
2018,08,20,04,34,13.90
2018,08,20,04,35,13.90
2018,08,20,04,36,13.90
2018,08,20,04,37,13.90
2018,08,20,04,38,13.90
2018,08,20,04,39,13.90
2018,08,20,04,40,13.90
2018,08,20,04,41,13.90
2018,08,20,04,42,13.90
2018,08,20,04,43,13.90
2018,08,20,04,44,13.90
2018,08,20,04,45,13.90
2018,08,20,04,46,13.90
2018,08,20,04,47,13.90
2018,08,20,04,48,13.90
2018,08,20,04,49,13.90
2018,08,20,04,50,13.90
2018,08,20,04,51,13.90
2018,08,20,04,52,13.90
2018,08,20,04,53,13.90
2018,08,20,04,54,13.90
2018,08,20,04,55,13.80
2018,08,20,04,56,13.80
2018,08,20,04,57,13.80
2018,08,20,04,58,13.80
2018,08,20,04,59,13.80
2018,08,20,05,00,13.80
2018,08,20,05,01,13.80
2018,08,20,05,02,13.80
2018,08,20,05,03,13.80
2018,08,20,05,04,13.80
2018,08,20,05,05,13.80
2018,08,20,05,06,13.80
2018,08,20,05,07,13.80
2018,08,20,05,08,13.90
2018,08,20,05,09,13.90
2018,08,20,05,10,13.90
2018,08,20,05,11,13.90
2018,08,20,05,12,13.90
2018,08,20,05,13,13.90
2018,08,20,05,14,13.90
2018,08,20,05,15,13.90
2018,08,20,05,16,13.90
2018,08,20,05,17,13.90
2018,08,20,05,18,13.90
2018,08,20,05,19,14.00
2018,08,20,05,20,14.00
2018,08,20,05,21,14.00
2018,08,20,05,22,14.00
2018,08,20,05,23,14.00
2018,08,20,05,24,13.90
2018,08,20,05,25,13.90
2018,08,20,05,26,13.90
2018,08,20,05,27,13.90
2018,08,20,05,28,13.90
2018,08,20,05,29,13.90
2018,08,20,05,30,13.90
2018,08,20,05,31,13.90
2018,08,20,05,32,13.80
2018,08,20,05,33,13.80
2018,08,20,05,34,13.80
2018,08,20,05,35,13.80
2018,08,20,05,36,13.80
2018,08,20,05,37,13.80
2018,08,20,05,38,13.80
2018,08,20,05,39,13.80
2018,08,20,05,40,13.70
2018,08,20,05,41,13.70
2018,08,20,05,42,13.70
2018,08,20,05,43,13.70
2018,08,20,05,44,13.70
2018,08,20,05,45,13.70
2018,08,20,05,46,13.70
2018,08,20,05,47,13.70
2018,08,20,05,48,13.70
2018,08,20,05,49,13.70
2018,08,20,05,50,13.70
2018,08,20,05,51,13.60
2018,08,20,05,52,13.60
2018,08,20,05,53,13.60
2018,08,20,05,54,13.60
2018,08,20,05,55,13.60
2018,08,20,05,56,13.60
2018,08,20,05,57,13.60
2018,08,20,05,58,13.60
2018,08,20,05,59,13.60
2018,08,20,06,00,13.60
2018,08,20,06,01,13.60
2018,08,20,06,02,13.60
2018,08,20,06,03,13.60
2018,08,20,06,04,13.60
2018,08,20,06,05,13.60
2018,08,20,06,06,13.60
2018,08,20,06,07,13.60
2018,08,20,06,08,13.60
2018,08,20,06,09,13.60
2018,08,20,06,10,13.60
2018,08,20,06,11,13.50
2018,08,20,06,12,13.50
2018,08,20,06,13,13.50
2018,08,20,06,14,13.50
2018,08,20,06,15,13.50
2018,08,20,06,16,13.50
2018,08,20,06,17,13.50
2018,08,20,06,18,13.50
2018,08,20,06,19,13.50
2018,08,20,06,20,13.50
2018,08,20,06,21,13.40
2018,08,20,06,22,13.40
2018,08,20,06,23,13.40
2018,08,20,06,24,13.40
2018,08,20,06,25,13.40
2018,08,20,06,26,13.40
2018,08,20,06,27,13.40
2018,08,20,06,28,13.40
2018,08,20,06,29,13.40
2018,08,20,06,30,13.40
2018,08,20,06,31,13.40
2018,08,20,06,32,13.40
2018,08,20,06,33,13.40
2018,08,20,06,34,13.40
2018,08,20,06,35,13.40
2018,08,20,06,36,13.40
2018,08,20,06,37,13.40
2018,08,20,06,38,13.40
2018,08,20,06,39,13.30
2018,08,20,06,40,13.30
2018,08,20,06,41,13.30
2018,08,20,06,42,13.40
2018,08,20,06,43,13.30
2018,08,20,06,44,13.30
2018,08,20,06,45,13.30
2018,08,20,06,46,13.30
2018,08,20,06,47,13.30
2018,08,20,06,48,13.30
2018,08,20,06,49,13.30
2018,08,20,06,50,13.40
2018,08,20,06,51,13.40
2018,08,20,06,52,13.40
2018,08,20,06,53,13.40
2018,08,20,06,54,13.40
2018,08,20,06,55,13.40
2018,08,20,06,56,13.40
2018,08,20,06,57,13.40
2018,08,20,06,58,13.40
2018,08,20,06,59,13.40
2018,08,20,07,00,13.40
2018,08,20,07,01,13.40
2018,08,20,07,02,13.40
2018,08,20,07,03,13.40
2018,08,20,07,04,13.40
2018,08,20,07,05,13.40
2018,08,20,07,06,13.40
2018,08,20,07,07,13.40
2018,08,20,07,08,13.40
2018,08,20,07,09,13.40
2018,08,20,07,10,13.50
2018,08,20,07,11,13.50
2018,08,20,07,12,13.50
2018,08,20,07,13,13.50
2018,08,20,07,14,13.60
2018,08,20,07,15,13.60
2018,08,20,07,16,13.60
2018,08,20,07,17,13.60
2018,08,20,07,18,13.60
2018,08,20,07,19,13.60
2018,08,20,07,20,13.60
2018,08,20,07,21,13.60
2018,08,20,07,22,13.70
2018,08,20,07,23,13.70
2018,08,20,07,24,13.70
2018,08,20,07,25,13.70
2018,08,20,07,26,13.70
2018,08,20,07,27,13.70
2018,08,20,07,28,13.70
2018,08,20,07,29,13.70
2018,08,20,07,30,13.70
2018,08,20,07,31,13.70
2018,08,20,07,32,13.70
2018,08,20,07,33,13.70
2018,08,20,07,34,13.70
2018,08,20,07,35,13.80
2018,08,20,07,36,13.80
2018,08,20,07,37,13.80
2018,08,20,07,38,13.80
2018,08,20,07,39,13.80
2018,08,20,07,40,13.90
2018,08,20,07,41,13.90
2018,08,20,07,42,13.90
2018,08,20,07,43,13.90
2018,08,20,07,44,13.90
2018,08,20,07,45,13.90
2018,08,20,07,46,13.90
2018,08,20,07,47,14.00
2018,08,20,07,48,14.00
2018,08,20,07,49,14.00
2018,08,20,07,50,14.00
2018,08,20,07,51,14.10
2018,08,20,07,52,14.10
2018,08,20,07,53,14.10
2018,08,20,07,54,14.10
2018,08,20,07,55,14.20
2018,08,20,07,56,14.20
2018,08,20,07,57,14.20
2018,08,20,07,58,14.20
2018,08,20,07,59,14.30
2018,08,20,08,00,14.30
2018,08,20,08,01,14.30
2018,08,20,08,02,14.40
2018,08,20,08,03,14.40
2018,08,20,08,04,14.50
2018,08,20,08,05,14.50
2018,08,20,08,06,14.50
2018,08,20,08,07,14.60
2018,08,20,08,08,14.60
2018,08,20,08,09,14.60
2018,08,20,08,10,14.70
2018,08,20,08,11,14.70
2018,08,20,08,12,14.70
2018,08,20,08,13,14.70
2018,08,20,08,14,14.80
2018,08,20,08,15,14.80
2018,08,20,08,16,14.90
2018,08,20,08,17,14.90
2018,08,20,08,18,14.90
2018,08,20,08,19,15.00
2018,08,20,08,20,15.00
2018,08,20,08,21,15.10
2018,08,20,08,22,15.10
2018,08,20,08,23,15.20
2018,08,20,08,24,15.20
2018,08,20,08,25,15.20
2018,08,20,08,26,15.30
2018,08,20,08,27,15.30
2018,08,20,08,28,15.40
2018,08,20,08,29,15.40
2018,08,20,08,30,15.40
2018,08,20,08,31,15.50
2018,08,20,08,32,15.50
2018,08,20,08,33,15.60
2018,08,20,08,34,15.60
2018,08,20,08,35,15.70
2018,08,20,08,36,15.70
2018,08,20,08,37,15.80
2018,08,20,08,38,15.80
2018,08,20,08,39,15.90
2018,08,20,08,40,15.90
2018,08,20,08,41,16.00
2018,08,20,08,42,16.00
2018,08,20,08,43,16.10
2018,08,20,08,44,16.10
2018,08,20,08,45,16.10
2018,08,20,08,46,16.20
2018,08,20,08,47,16.20
2018,08,20,08,48,16.30
2018,08,20,08,49,16.30
2018,08,20,08,50,16.30
2018,08,20,08,51,16.40
2018,08,20,08,52,16.40
2018,08,20,08,53,16.40
2018,08,20,08,54,16.50
2018,08,20,08,55,16.60
2018,08,20,08,56,16.60
2018,08,20,08,57,16.60
2018,08,20,08,58,16.70
2018,08,20,08,59,16.70
2018,08,20,09,00,16.80
2018,08,20,09,01,16.80
2018,08,20,09,02,16.90
2018,08,20,09,03,16.90
2018,08,20,09,04,17.00
2018,08,20,09,05,17.00
2018,08,20,09,06,17.10
2018,08,20,09,07,17.10
2018,08,20,09,08,17.20
2018,08,20,09,09,17.30
2018,08,20,09,10,17.30
2018,08,20,09,11,17.40
2018,08,20,09,12,17.40
2018,08,20,09,13,17.50
2018,08,20,09,14,17.50
2018,08,20,09,15,17.60
2018,08,20,09,16,17.70
2018,08,20,09,17,17.70
2018,08,20,09,18,17.80
2018,08,20,09,19,17.80
2018,08,20,09,20,17.90
2018,08,20,09,21,17.90
2018,08,20,09,22,18.00
2018,08,20,09,23,18.00
2018,08,20,09,24,18.10
2018,08,20,09,25,18.10
2018,08,20,09,26,18.10
2018,08,20,09,27,18.20
2018,08,20,09,28,18.20
2018,08,20,09,29,18.30
2018,08,20,09,30,18.30
2018,08,20,09,31,18.40
2018,08,20,09,32,18.40
2018,08,20,09,33,18.40
2018,08,20,09,34,18.50
2018,08,20,09,35,18.60
2018,08,20,09,36,18.60
2018,08,20,09,37,18.70
2018,08,20,09,38,18.70
2018,08,20,09,39,18.80
2018,08,20,09,40,18.90
2018,08,20,09,41,18.90
2018,08,20,09,42,19.00
2018,08,20,09,43,19.00
2018,08,20,09,44,19.10
2018,08,20,09,45,19.10
2018,08,20,09,46,19.20
2018,08,20,09,47,19.20
2018,08,20,09,48,19.20
2018,08,20,09,49,19.20
2018,08,20,09,50,19.20
2018,08,20,09,51,19.20
2018,08,20,09,52,19.20
2018,08,20,09,53,19.20
2018,08,20,09,54,19.20
2018,08,20,09,55,19.20
2018,08,20,09,56,19.10
2018,08,20,09,57,19.10
2018,08,20,09,58,19.10
2018,08,20,09,59,19.10
2018,08,20,10,00,19.20
2018,08,20,10,01,19.20
2018,08,20,10,02,19.20
2018,08,20,10,03,19.20
2018,08,20,10,04,19.30
2018,08,20,10,05,19.30
2018,08,20,10,06,19.40
2018,08,20,10,07,19.50
2018,08,20,10,08,19.50
2018,08,20,10,09,19.60
2018,08,20,10,10,19.70
2018,08,20,10,11,19.80
2018,08,20,10,12,19.80
2018,08,20,10,13,19.90
2018,08,20,10,14,19.90
2018,08,20,10,15,20.00
2018,08,20,10,16,20.00
2018,08,20,10,17,20.10
2018,08,20,10,18,20.20
2018,08,20,10,19,20.20
2018,08,20,10,20,20.30
2018,08,20,10,21,20.40
2018,08,20,10,22,20.50
2018,08,20,10,23,20.60
2018,08,20,10,24,20.70
2018,08,20,10,25,20.80
2018,08,20,10,26,20.90
2018,08,20,10,27,21.00
2018,08,20,10,28,21.10
2018,08,20,10,29,21.20
2018,08,20,10,30,21.30
2018,08,20,10,31,21.40
2018,08,20,10,32,21.60
2018,08,20,10,33,21.70
2018,08,20,10,34,21.70
2018,08,20,10,35,21.80
2018,08,20,10,36,21.90
2018,08,20,10,37,21.90
2018,08,20,10,38,21.90
2018,08,20,10,39,22.00
2018,08,20,10,40,22.00
2018,08,20,10,41,22.10
2018,08,20,10,42,22.10
2018,08,20,10,43,22.10
2018,08,20,10,44,22.10
2018,08,20,10,45,22.10
2018,08,20,10,46,22.20
2018,08,20,10,47,22.20
2018,08,20,10,48,22.20
2018,08,20,10,49,22.30
2018,08,20,10,50,22.30
2018,08,20,10,51,22.30
2018,08,20,10,52,22.40
2018,08,20,10,53,22.50
2018,08,20,10,54,22.60
2018,08,20,10,55,22.60
2018,08,20,10,56,22.70
2018,08,20,10,57,22.80
2018,08,20,10,58,22.90
2018,08,20,10,59,23.00
2018,08,20,11,00,23.00
2018,08,20,11,01,23.00
2018,08,20,11,02,23.00
2018,08,20,11,03,23.00
2018,08,20,11,04,23.10
2018,08,20,11,05,23.10
2018,08,20,11,06,23.10
2018,08,20,11,07,23.10
2018,08,20,11,08,23.20
2018,08,20,11,09,23.20
2018,08,20,11,10,23.30
2018,08,20,11,11,23.40
2018,08,20,11,12,23.50
2018,08,20,11,13,23.60
2018,08,20,11,14,23.70
2018,08,20,11,15,23.70
2018,08,20,11,16,23.80
2018,08,20,11,17,23.90
2018,08,20,11,18,24.00
2018,08,20,11,19,24.10
2018,08,20,11,20,24.20
2018,08,20,11,21,24.30
2018,08,20,11,22,24.40
2018,08,20,11,23,24.40
2018,08,20,11,24,24.50
2018,08,20,11,25,24.60
2018,08,20,11,26,24.70
2018,08,20,11,27,24.70
2018,08,20,11,28,24.70
2018,08,20,11,29,24.70
2018,08,20,11,30,24.70
2018,08,20,11,31,24.70
2018,08,20,11,32,24.60
2018,08,20,11,33,24.50
2018,08,20,11,34,24.40
2018,08,20,11,35,24.30
2018,08,20,11,36,24.20
2018,08,20,11,37,24.20
2018,08,20,11,38,24.20
2018,08,20,11,39,24.20
2018,08,20,11,40,24.30
2018,08,20,11,41,24.30
2018,08,20,11,42,24.40
2018,08,20,11,43,24.50
2018,08,20,11,44,24.50
2018,08,20,11,45,24.60
2018,08,20,11,46,24.70
2018,08,20,11,47,24.70
2018,08,20,11,48,24.70
2018,08,20,11,49,24.80
2018,08,20,11,50,24.80
2018,08,20,11,51,24.80
2018,08,20,11,52,24.80
2018,08,20,11,53,24.70
2018,08,20,11,54,24.70
2018,08,20,11,55,24.70
2018,08,20,11,56,24.70
2018,08,20,11,57,24.70
2018,08,20,11,58,24.70
2018,08,20,11,59,24.70
2018,08,20,12,00,24.70
2018,08,20,12,01,24.70
2018,08,20,12,02,24.80
2018,08,20,12,03,24.70
2018,08,20,12,04,24.70
2018,08,20,12,05,24.70
2018,08,20,12,06,24.60
2018,08,20,12,07,24.50
2018,08,20,12,08,24.50
2018,08,20,12,09,24.50
2018,08,20,12,10,24.60
2018,08,20,12,11,24.60
2018,08,20,12,12,24.70
2018,08,20,12,13,24.80
2018,08,20,12,14,24.80
2018,08,20,12,15,24.90
2018,08,20,12,16,24.90
2018,08,20,12,17,24.90
2018,08,20,12,18,24.90
2018,08,20,12,19,24.90
2018,08,20,12,20,24.90
2018,08,20,12,21,25.00
2018,08,20,12,22,25.10
2018,08,20,12,23,25.20
2018,08,20,12,24,25.20
2018,08,20,12,25,25.30
2018,08,20,12,26,25.30
2018,08,20,12,27,25.30
2018,08,20,12,28,25.30
2018,08,20,12,29,25.40
2018,08,20,12,30,25.40
2018,08,20,12,31,25.40
2018,08,20,12,32,25.40
2018,08,20,12,33,25.40
2018,08,20,12,34,25.40
2018,08,20,12,35,25.40
2018,08,20,12,36,25.40
2018,08,20,12,37,25.40
2018,08,20,12,38,25.30
2018,08,20,12,39,25.30
2018,08,20,12,40,25.40
2018,08,20,12,41,25.50
2018,08,20,12,42,25.60
2018,08,20,12,43,25.70
2018,08,20,12,44,25.80
2018,08,20,12,45,25.90
2018,08,20,12,46,26.00
2018,08,20,12,47,26.20
2018,08,20,12,48,26.30
2018,08,20,12,49,26.30
2018,08,20,12,50,26.40
2018,08,20,12,51,26.30
2018,08,20,12,52,26.30
2018,08,20,12,53,26.30
2018,08,20,12,54,26.20
2018,08,20,12,55,26.10
2018,08,20,12,56,26.10
2018,08,20,12,57,26.10
2018,08,20,12,58,26.10
2018,08,20,12,59,26.10
2018,08,20,13,00,26.10
2018,08,20,13,01,26.10
2018,08,20,13,02,26.10
2018,08,20,13,03,26.10
2018,08,20,13,04,26.10
2018,08,20,13,05,26.10
2018,08,20,13,06,26.20
2018,08,20,13,07,26.20
2018,08,20,13,08,26.20
2018,08,20,13,09,26.30
2018,08,20,13,10,26.40
2018,08,20,13,11,26.40
2018,08,20,13,12,26.40
2018,08,20,13,13,26.50
2018,08,20,13,14,26.50
2018,08,20,13,15,26.60
2018,08,20,13,16,26.70
2018,08,20,13,17,26.80
2018,08,20,13,18,26.90
2018,08,20,13,19,27.00
2018,08,20,13,20,27.10
2018,08,20,13,21,27.20
2018,08,20,13,22,27.30
2018,08,20,13,23,27.30
2018,08,20,13,24,27.40
2018,08,20,13,25,27.40
2018,08,20,13,26,27.50
2018,08,20,13,27,27.60
2018,08,20,13,28,27.60
2018,08,20,13,29,27.60
2018,08,20,13,30,27.70
2018,08,20,13,31,27.70
2018,08,20,13,32,27.70
2018,08,20,13,33,27.70
2018,08,20,13,34,27.80
2018,08,20,13,35,27.80
2018,08,20,13,36,27.90
2018,08,20,13,37,28.00
2018,08,20,13,38,28.20
2018,08,20,13,39,28.20
2018,08,20,13,40,28.40
2018,08,20,13,41,28.40
2018,08,20,13,42,28.50
2018,08,20,13,43,28.60
2018,08,20,13,44,28.60
2018,08,20,13,45,28.60
2018,08,20,13,46,28.60
2018,08,20,13,47,28.60
2018,08,20,13,48,28.60
2018,08,20,13,49,28.60
2018,08,20,13,50,28.60
2018,08,20,13,51,28.60
2018,08,20,13,52,28.60
2018,08,20,13,53,28.60
2018,08,20,13,54,28.60
2018,08,20,13,55,28.70
2018,08,20,13,56,28.70
2018,08,20,13,57,28.70
2018,08,20,13,58,28.80
2018,08,20,13,59,28.80
2018,08,20,14,00,28.70
2018,08,20,14,01,28.70
2018,08,20,14,02,28.70
2018,08,20,14,03,28.80
2018,08,20,14,04,28.70
2018,08,20,14,05,28.70
2018,08,20,14,06,28.70
2018,08,20,14,07,28.80
2018,08,20,14,08,28.80
2018,08,20,14,09,28.90
2018,08,20,14,10,29.00
2018,08,20,14,11,29.20
2018,08,20,14,12,29.30
2018,08,20,14,13,29.30
2018,08,20,14,14,29.40
2018,08,20,14,15,29.40
2018,08,20,14,16,29.40
2018,08,20,14,17,29.40
2018,08,20,14,18,29.40
2018,08,20,14,19,29.30
2018,08,20,14,20,29.30
2018,08,20,14,21,29.30
2018,08,20,14,22,29.30
2018,08,20,14,23,29.40
2018,08,20,14,24,29.40
2018,08,20,14,25,29.40
2018,08,20,14,26,29.50
2018,08,20,14,27,29.40
2018,08,20,14,28,29.30
2018,08,20,14,29,29.20
2018,08,20,14,30,29.10
2018,08,20,14,31,28.90
2018,08,20,14,32,28.80
2018,08,20,14,33,28.80
2018,08,20,14,34,28.80
2018,08,20,14,35,28.80
2018,08,20,14,36,28.80
2018,08,20,14,37,28.80
2018,08,20,14,38,28.90
2018,08,20,14,39,28.90
2018,08,20,14,40,28.90
2018,08,20,14,41,28.90
2018,08,20,14,42,28.90
2018,08,20,14,43,28.90
2018,08,20,14,44,28.80
2018,08,20,14,45,28.80
2018,08,20,14,46,28.90
2018,08,20,14,47,28.90
2018,08,20,14,48,28.90
2018,08,20,14,49,28.90
2018,08,20,14,50,28.90
2018,08,20,14,51,29.00
2018,08,20,14,52,29.00
2018,08,20,14,53,29.10
2018,08,20,14,54,29.20
2018,08,20,14,55,29.30
2018,08,20,14,56,29.40
2018,08,20,14,57,29.50
2018,08,20,14,58,29.50
2018,08,20,14,59,29.60
2018,08,20,15,00,29.50
2018,08,20,15,01,29.50
2018,08,20,15,02,29.40
2018,08,20,15,03,29.40
2018,08,20,15,04,29.40
2018,08,20,15,05,29.50
2018,08,20,15,06,29.60
2018,08,20,15,07,29.80
2018,08,20,15,08,29.90
2018,08,20,15,09,30.00
2018,08,20,15,10,30.20
2018,08,20,15,11,30.30
2018,08,20,15,12,30.30
2018,08,20,15,13,30.40
2018,08,20,15,14,30.40
2018,08,20,15,15,30.40
2018,08,20,15,16,30.50
2018,08,20,15,17,30.50
2018,08,20,15,18,30.60
2018,08,20,15,19,30.60
2018,08,20,15,20,30.60
2018,08,20,15,21,30.60
2018,08,20,15,22,30.50
2018,08,20,15,23,30.50
2018,08,20,15,24,30.40
2018,08,20,15,25,30.40
2018,08,20,15,26,30.40
2018,08,20,15,27,30.20
2018,08,20,15,28,30.10
2018,08,20,15,29,30.00
2018,08,20,15,30,29.90
2018,08,20,15,31,29.90
2018,08,20,15,32,29.90
2018,08,20,15,33,29.90
2018,08,20,15,34,30.00
2018,08,20,15,35,30.10
2018,08,20,15,36,30.10
2018,08,20,15,37,30.10
2018,08,20,15,38,30.00
2018,08,20,15,39,30.00
2018,08,20,15,40,29.90
2018,08,20,15,41,29.90
2018,08,20,15,42,29.90
2018,08,20,15,43,29.80
2018,08,20,15,44,29.80
2018,08,20,15,45,29.80
2018,08,20,15,46,29.80
2018,08,20,15,47,29.80
2018,08,20,15,48,29.70
2018,08,20,15,49,29.70
2018,08,20,15,50,29.70
2018,08,20,15,51,29.70
2018,08,20,15,52,29.70
2018,08,20,15,53,29.70
2018,08,20,15,54,29.70
2018,08,20,15,55,29.80
2018,08,20,15,56,29.80
2018,08,20,15,57,29.90
2018,08,20,15,58,30.00
2018,08,20,15,59,30.00
2018,08,20,16,00,30.10
2018,08,20,16,01,30.10
2018,08,20,16,02,30.10
2018,08,20,16,03,30.10
2018,08,20,16,04,30.10
2018,08,20,16,05,30.10
2018,08,20,16,06,30.00
2018,08,20,16,07,29.90
2018,08,20,16,08,29.70
2018,08,20,16,09,29.60
2018,08,20,16,10,29.50
2018,08,20,16,11,29.40
2018,08,20,16,12,29.30
2018,08,20,16,13,29.30
2018,08,20,16,14,29.20
2018,08,20,16,15,29.20
2018,08,20,16,16,29.20
2018,08,20,16,17,29.20
2018,08,20,16,18,29.30
2018,08,20,16,19,29.30
2018,08,20,16,20,29.40
2018,08,20,16,21,29.50
2018,08,20,16,22,29.50
2018,08,20,16,23,29.60
2018,08,20,16,24,29.60
2018,08,20,16,25,29.50
2018,08,20,16,26,29.50
2018,08,20,16,27,29.50
2018,08,20,16,28,29.50
2018,08,20,16,29,29.50
2018,08,20,16,30,29.40
2018,08,20,16,31,29.40
2018,08,20,16,32,29.40
2018,08,20,16,33,29.40
2018,08,20,16,34,29.40
2018,08,20,16,35,29.40
2018,08,20,16,36,29.50
2018,08,20,16,37,29.50
2018,08,20,16,38,29.60
2018,08,20,16,39,29.60
2018,08,20,16,40,29.60
2018,08,20,16,41,29.70
2018,08,20,16,42,29.70
2018,08,20,16,43,29.80
2018,08,20,16,44,29.80
2018,08,20,16,45,29.80
2018,08,20,16,46,29.80
2018,08,20,16,47,29.70
2018,08,20,16,48,29.70
2018,08,20,16,49,29.70
2018,08,20,16,50,29.70
2018,08,20,16,51,29.70
2018,08,20,16,52,29.70
2018,08,20,16,53,29.70
2018,08,20,16,54,29.70
2018,08,20,16,55,29.80
2018,08,20,16,56,29.80
2018,08,20,16,57,29.80
2018,08,20,16,58,29.80
2018,08,20,16,59,29.80
2018,08,20,17,00,29.80
2018,08,20,17,01,29.90
2018,08,20,17,02,29.90
2018,08,20,17,03,29.90
2018,08,20,17,04,30.00
2018,08,20,17,05,30.00
2018,08,20,17,06,29.90
2018,08,20,17,07,29.90
2018,08,20,17,08,30.00
2018,08,20,17,09,30.00
2018,08,20,17,10,30.00
2018,08,20,17,11,30.00
2018,08,20,17,12,30.10
2018,08,20,17,13,30.10
2018,08,20,17,14,30.10
2018,08,20,17,15,30.10
2018,08,20,17,16,30.20
2018,08,20,17,17,30.20
2018,08,20,17,18,30.20
2018,08,20,17,19,30.20